This demonstration page uses our WeatherBlox Daily Observations layout. Learn more.

Hourly Observations for June 14, 2020

Temp ( °F °C ) Dew Point ( °F °C ) Humidity (%) Winds ( mph kmh ) Pressure ( in mb ) Visibility ( mi km ) Precip ( " mm )
12:15 am 00:15 Partly Cloudy 64 18 50 10 60 60 Calm 30.25 1025 10 16.0934 0 0
12:35 am 00:35 Mostly Cloudy 64 18 50 10 60 60 NE 5 7 30.25 1025 10 16.0934 0 0
12:55 am 00:55 Cloudy 64 18 48 9 56 56 ENE 7 11 30.25 1025 10 16.0934 0 0
1:15 am 01:15 Cloudy 64 18 46 8 52 52 ENE 6 9 30.25 1025 10 16.0934 0 0
1:35 am 01:35 Cloudy 64 18 48 9 56 56 NE 3 6 30.25 1025 10 16.0934 0 0
1:55 am 01:55 Cloudy 64 18 50 10 60 60 ENE 3 6 30.25 1025 10 16.0934 0 0
2:15 am 02:15 Cloudy 64 18 50 10 60 60 NNE 6 9 30.26 1025 10 16.0934 0 0
2:35 am 02:35 Cloudy 63 17 50 10 64 64 NNE 6 9 30.27 1025 10 16.0934 0 0
2:55 am 02:55 Cloudy 63 17 50 10 64 64 NNE 6 9 30.28 1025 10 16.0934 0 0
3:15 am 03:15 Cloudy 63 17 48 9 59 59 NE 6 9 30.27 1025 10 16.0934 0 0
3:35 am 03:35 Cloudy 63 17 48 9 59 59 NNE 6 9 30.28 1025 10 16.0934 0 0
3:55 am 03:55 Cloudy 61 16 48 9 63 63 NNE 6 9 30.28 1025 10 16.0934 0 0
4:15 am 04:15 Cloudy 61 16 46 8 59 59 NNE 6 9 30.28 1025 10 16.0934 0 0
4:35 am 04:35 Cloudy 59 15 46 8 63 63 NNE 8 13 30.29 1026 10 16.0934 0 0
4:55 am 04:55 Cloudy 59 15 46 8 63 63 NE 7 11 30.29 1026 10 16.0934 0 0
5:15 am 05:15 Mostly Cloudy 59 15 46 8 63 63 NNE 7 11 30.3 1026 10 16.0934 0 0
5:35 am 05:35 Mostly Cloudy 59 15 46 8 63 63 NE 9 15 30.31 1026 10 16.0934 0 0
5:55 am 05:55 Cloudy 59 15 46 8 63 63 NE 6 9 30.31 1026 10 16.0934 0 0
6:15 am 06:15 Cloudy 59 15 46 8 63 63 NE 5 7 30.32 1027 10 16.0934 0 0
6:35 am 06:35 Cloudy 59 15 46 8 63 63 NE 5 7 30.32 1027 10 16.0934 0 0
6:55 am 06:55 Cloudy 59 15 46 8 63 63 NE 7 11 30.33 1027 10 16.0934 0 0
7:15 am 07:15 Cloudy 59 15 46 8 63 63 NE 7 11 30.34 1027 10 16.0934 0 0
7:35 am 07:35 Mostly Cloudy 59 15 46 8 63 63 NE 7 11 30.34 1027 10 16.0934 0 0
7:55 am 07:55 Mostly Cloudy 59 15 46 8 63 63 NE 8 13 30.35 1028 10 16.0934 0 0
8:15 am 08:15 Cloudy 59 15 46 8 63 63 NE 7 11 30.36 1028 10 16.0934 0 0
8:35 am 08:35 Cloudy 61 16 48 9 63 63 NE 6 9 30.37 1028 10 16.0934 0 0
8:55 am 08:55 Cloudy 61 16 48 9 63 63 NE 9 15 30.37 1028 10 16.0934 0 0
9:15 am 09:15 Mostly Cloudy 61 16 48 9 63 63 NNE 6 9 30.37 1028 10 16.0934 0 0
9:35 am 09:35 Mostly Cloudy 61 16 48 9 63 63 NE 6 9 30.38 1029 10 16.0934 0 0
9:55 am 09:55 Cloudy 63 17 48 9 59 59 E 6 9 30.38 1029 10 16.0934 0 0
10:15 am 10:15 Cloudy 63 17 50 10 64 64 NE 5 7 30.37 1028 10 16.0934 0 0
10:35 am 10:35 Cloudy 63 17 50 10 64 64 NNE 6 9 30.38 1029 10 16.0934 0 0
10:55 am 10:55 Cloudy 64 18 50 10 60 60 NE 5 7 30.37 1029 10 16.0934 0 0
11:15 am 11:15 Cloudy 63 17 50 10 64 64 NNE 6 9 30.38 1029 10 16.0934 0 0
11:35 am 11:35 Cloudy 61 16 50 10 68 68 N 6 9 30.37 1028 10 16.0934 0 0
11:55 am 11:55 Cloudy 61 16 50 10 68 68 NNE 6 9 30.37 1028 10 16.0934 0 0
12:15 pm 12:15 Mostly Cloudy 63 17 50 10 64 64 NNE 9 15 30.36 1028 10 16.0934 0 0
12:35 pm 12:35 Sunny 64 18 52 11 64 64 NNE 7 11 30.35 1028 10 16.0934 0 0
12:55 pm 12:55 Partly Cloudy 64 18 52 11 64 64 NE 7 11 30.34 1028 10 16.0934 0 0
1:15 pm 13:15 Partly Cloudy 68 20 52 11 56 56 ENE 8 13 30.34 1027 10 16.0934 0 0
1:35 pm 13:35 Mostly Cloudy 68 20 54 12 60 60 NNE 5 7 30.33 1027 10 16.0934 0 0
1:55 pm 13:55 Mostly Cloudy 70 21 55 13 60 60 NE 8 13 30.32 1027 10 16.0934 0 0
2:15 pm 14:15 Mostly Cloudy 70 21 54 12 57 57 NNE 6 9 30.32 1027 10 16.0934 0 0
2:35 pm 14:35 Cloudy 70 21 54 12 57 57 N 7 11 30.32 1027 10 16.0934 0 0
2:55 pm 14:55 Cloudy 68 20 54 12 60 60 NNE 13 20 30.32 1027 10 16.0934 0 0
3:15 pm 15:15 Cloudy 68 20 54 12 60 60 NNE 12 19 30.31 1026 10 16.0934 0 0
3:35 pm 15:35 Cloudy 68 20 54 12 60 60 NNE 14 22 30.31 1026 10 16.0934 0 0
3:55 pm 15:55 Mostly Cloudy 68 20 54 12 60 60 NE 10 17 30.31 1026 10 16.0934 0 0
4:15 pm 16:15 Mostly Cloudy 68 20 54 12 60 60 NNE 10 17 30.31 1026 10 16.0934 0 0
4:35 pm 16:35 Cloudy 70 21 54 12 57 57 NE 9 15 30.3 1026 10 16.0934 0 0
4:55 pm 16:55 Cloudy 70 21 54 12 57 57 NE 8 13 30.3 1026 10 16.0934 0 0
5:15 pm 17:15 Cloudy 70 21 55 13 60 60 NE 7 11 30.3 1026 10 16.0934 0 0
5:35 pm 17:35 Cloudy 70 21 55 13 60 60 NE 10 17 30.3 1026 10 16.0934 0 0
5:55 pm 17:55 Cloudy 70 21 55 13 60 60 NE 6 9 30.3 1026 10 16.0934 0 0
6:15 pm 18:15 Cloudy 70 21 55 13 60 60 NE 7 11 30.29 1026 10 16.0934 0 0
6:35 pm 18:35 Cloudy 70 21 55 13 60 60 NE 6 9 30.3 1026 10 16.0934 0 0
6:55 pm 18:55 Cloudy 70 21 55 13 60 60 NE 9 15 30.3 1026 10 16.0934 0 0
7:15 pm 19:15 Cloudy 70 21 55 13 60 60 NE 8 13 30.3 1026 10 16.0934 0 0
7:35 pm 19:35 Cloudy 70 21 55 13 60 60 ENE 8 13 30.3 1026 10 16.0934 0 0
7:55 pm 19:55 Partly Cloudy 68 20 55 13 64 64 ENE 7 11 30.3 1026 10 16.0934 0 0
8:15 pm 20:15 Sunny 68 20 55 13 64 64 NE 5 7 30.3 1026 10 16.0934 0 0
8:35 pm 20:35 Sunny 68 20 55 13 64 64 NE 6 9 30.3 1026 10 16.0934 0 0
8:55 pm 20:55 Clear 66 19 55 13 68 68 NNE 6 9 30.31 1027 10 16.0934 0 0
9:15 pm 21:15 Clear 66 19 55 13 68 68 NNE 5 7 30.3 1026 10 16.0934 0 0
9:35 pm 21:35 Clear 64 18 55 13 73 73 NE 5 7 30.3 1026 10 16.0934 0 0
9:55 pm 21:55 Clear 64 18 55 13 73 73 ENE 5 7 30.31 1027 10 16.0934 0 0
10:15 pm 22:15 Clear 64 18 55 13 73 73 Calm 30.32 1027 10 16.0934 0 0
10:35 pm 22:35 Clear 63 17 55 13 77 77 Calm 30.33 1027 10 16.0934 0 0
10:55 pm 22:55 Clear 61 16 55 13 83 83 Calm 30.33 1027 10 16.0934 0 0
11:15 pm 23:15 Clear 61 16 55 13 83 83 Calm 30.33 1027 10 16.0934 0 0
11:35 pm 23:35 Clear 61 16 55 13 83 83 N 3 6 30.33 1027 10 16.0934 0 0
11:55 pm 23:55 Clear 61 16 55 13 83 83 Calm 30.33 1027 10 16.0934 0 0

Powered by AerisWeather